Location: Pasadena, ca
(34.1243°N, 118.1037°W)
Time: 08:41:36
(UTC-07:00)

ISS - Pass Details

Date: 15 October 2017
Orbit: 401 x 408 km, 51.6° (Epoch: 23 October)

Event Time Altitude Azimuth Distance (km) Brightness Sun altitude
Rises 18:40:53 0° 321° (NW) 2,322 0.5 -5.6°
Reaches altitude 10° 18:43:07 10° 332° (NNW) 1,462 -0.7 -6.0°
Maximum altitude 18:46:05 31° 37° (NE) 734 -2.9 -6.6°
Drops below altitude 10° 18:49:03 10° 102° (ESE) 1,459 -1.6 -7.2°
Enters shadow 18:49:25 - 105° (ESE) 1,595 -1.4 -7.3°
